Location: Warszawa
(52.2500°N, 21.0000°E)
Time: 15:00:52
(UTC+01:00)

Vanguard 2 - Pass Details

Date: 07 February 2023
Orbit: 553 x 2927 km, 32.9° (Epoch: 24 March)

Event Time Altitude Azimuth Distance (km) Brightness Sun altitude
Rises 00:51:52 0° 263° (W) 6,129 - -51.2°
Reaches altitude 10° 00:56:22 10° 254° (WSW) 5,371 - -50.9°
Maximum altitude 01:09:33 30° 202° (SSW) 4,291 - -50.0°
Drops below altitude 10° 01:23:12 10° 150° (SSE) 5,543 - -48.8°
Exits shadow 01:25:35 - 145° (SE) 5,929 11.9 -48.6°
Sets 01:27:59 0° 141° (SE) 6,344 12.1 -48.4°
